Other Public Products
Issued by NWS Grand Forks, ND

Home | Current Version | Previous Version | Graphics & Text | Print | Product List | Glossary On
Versions: 1 2 3 4 5 6 7 8 9 10 11 12 13 14 15 16 17 18 19 20 21 22 23 24 25 26 27 28 29 30 31 32 33 34 35 36 37 38 39 40 41 42 43 44 45 46 47 48 49 50
106
FPUS83 KFGF 061031
OPUFGF
PRAIRIE TO PINES WEATHER ROUNDUP
NATIONAL WEATHER SERVICE EASTERN NORTH DAKOTA/GRAND FORKS ND
400 AM CST TUE DEC 06 2016

 **SATELLITE DATA USED TO AUGMENT SKY COVER AT AUTOMATED STATIONS**
 *****  WEATHER ACROSS EASTERN NORTH DAKOTA  *****

CITY           SKY/WX    TMP DP  RH WIND       PRES   REMARKS
GRAND FORKS    CLOUDY    30  27  88 N20       29.31F FOG     WCI  17
GRAND FORKS AF LGT SNOW  28  28 100 N21       29.33S FOG     WCI  15
GRAND CITY NWS   N/A     28 N/A N/A N7          N/A  WCI  21
BUXTON           N/A    N/A N/A N/A CALM        N/A
DEVILS LAKE    LGT SNOW  27  25  93 N31G38    29.45F VSB 3/4 WCI  10
FARGO          CLOUDY    24  19  81 S20       29.43F WCI  10
WAHPETON ARPT  CLOUDY    21  14  73 SW25      29.54F WCI   4
$$

 *****  WEATHER ACROSS CENTRAL AND WESTERN NORTH DAKOTA  *****

CITY           SKY/WX    TMP DP  RH WIND       PRES   REMARKS
JAMESTOWN      SNOW      25  23  92 NW32G40   29.46S VSB 1/2 WCI   8
BISMARCK       LGT SNOW  12  10  92 NW25G41   29.74R VSB 3/4 WCI  -8
MINOT          HVY SNOW  13  10  88 W37G44    29.72S VSB 1/4 WCI -10
MINOT AFB      BLWGSNOW  12   9  85 NW35G43   29.71S VSB 1/4 WCI -10
GARRISON         N/A     10   7  87 NW36G47   29.73R WCI -14
WILLISTON      LGT SNOW   8   1  73 NW26G32   29.98S WCI -14
DICKINSON      MIX PCPN   5   0  79 NW36G44   29.84R WCI -21
HETTINGER      CLOUDY     6   0  76 NW31G43   29.87R WCI -18
$$

 *****  OTHER OBSERVATIONS NORTHEAST NORTH DAKOTA  *****

CITY           SKY/WX    TMP DP  RH WIND       PRES   REMARKS
WALHALLA       LGT SNOW  28  28 100 N29G37    29.42F VSB 3/4 WCI  13
LANGDON        LGT SNOW  27  27 100 N30G40    29.41F VSB 1   WCI  10
CAVALIER       SNOW      28  28 100 N24G33    29.37F VSB 1/2 WCI  14
GRAFTON        FOG       30  30 100 N24G35    29.33F VSB 1   WCI  16
CANDO          LGT SNOW  25  25 100 N28G36    29.52S WCI   8
FORT TOTTEN      N/A     26  26 100 N12       29.95  WCI  16
ROLLA          SNOW      23  23 100 N30G40    29.55S VSB 1/2 WCI   5
RUGBY          LGT SNOW  19  19 100 NW31G37   29.58R WCI   0
 ***** THE ABOVE OBSERVATIONS ARE NON NWS ARE NOT QUALITY
        CONTROLLED AND MAY MIS-REPORT RAIN FOR SNOW...
$$

 *****  OTHER OBSERVATIONS SOUTHEAST NORTH DAKOTA *****

CITY           SKY/WX    TMP DP  RH WIND       PRES   REMARKS
COOPERSTOWN    LGT SNOW  27  27 100 NW21G29   29.39S WCI  13
VALLEY CITY    LGT SNOW  27  27 100 W23G31    29.43S WCI  12
OAKES          NOT AVBL
GWINNER          N/A     21  19  93 W24G30    29.50F WCI   4
SHEYENNE NWR     N/A     20  15  81 W17       29.95S WCI   5
BUFFALO          N/A     28  26  92 W14         N/A  WCI  16
WYNDMERE         N/A     19  16  86 SW22        N/A  WCI   3
 ***** THE ABOVE OBSERVATIONS ARE NON NWS ARE NOT QUALITY
       CONTROLLED AND MAY MIS-REPORT RAIN FOR SNOW...
$$

  *****  WEATHER ACROSS NORTHERN MINNESOTA  *****

CITY           SKY/WX    TMP DP  RH WIND       PRES   REMARKS
FLAG ISLAND    LGT SNOW  32  30  93 E10G16    29.33F WCI  24
WARROAD        LGT RAIN  34  28  80 S14G21    29.32S WCI  24
ROSEAU         LGT SNOW  34  28  80 S18       29.31S WCI  23
HALLOCK        LGT SNOW  30  28  93 N18       29.30F WCI  18
THF RVR FALLS  LGT SNOW  25  23  93 S26G35    29.31S FOG     WCI   9
HALSTAD          N/A     25  21  87 S22         N/A  WCI  10
FOSSTON        CLOUDY    19  18  93 S25G33    29.39F WCI   2
BAUDETTE       CLOUDY    33  31  92 S21G30    29.35S WCI  21
WASKISH        CLOUDY    30  28  93 S15G21    29.40S WCI  19
CROOKSTON      LGT SNOW  27  27 100 S23       29.33S WCI  12
$$
  *****  WEATHER ACROSS CENTRAL AND WEST MINNESOTA  *****

CITY           SKY/WX    TMP DP  RH WIND       PRES   REMARKS
BEMIDJI        CLOUDY    24  20  85 S16G22    29.43F WCI  10
PARK RAPIDS    CLOUDY    21  14  74 S13G25    29.49F WCI   9
WADENA         MIX PCPN  18  12  79 SW14G26   29.54S WCI   4
DETROIT LAKES  CLOUDY    21  18  86 SW15G28   29.47F WCI   8
MOORHEAD       CLOUDY    21  18  86 S20G25    29.45F WCI   6
FERGUS FALLS   CLOUDY    19  14  79 SW25G32   29.59F WCI   2
ELBOW LAKE     CLOUDY    18  13  79 SW25G32   29.59F WCI   0
MORRIS MN      CLOUDY    19  12  73 W22G29    29.63F WCI   3
STAPLES        CLOUDY    18  14  86 SW15G22   29.57S WCI   3
WHEATON        CLOUDY    19  14  79 SW22G28   29.64R WCI   3
$$
  *****  WEATHER ELSEWHERE ACROSS MINNESOTA  *****

CITY           SKY/WX    TMP DP  RH WIND       PRES   REMARKS
DULUTH         CLOUDY    34  30  85 SW21G28   29.56S WCI  22
INTRNTL FALLS  CLOUDY    34  31  88 S7        29.43S FOG
ELY            CLOUDY    34  34 100 S12G21    29.52S
CLOQUET        CLOUDY    34  28  80 S16G25    29.56S WCI  23
BRAINERD       CLOUDY    24  19  81 SW18      29.58R WCI  10
HIBBING        CLOUDY    32  28  85 S8        29.51S WCI  25
ALEXANDRIA     CLOUDY    19  13  77 SW21G31   29.61S WCI   3
SAINT CLOUD    CLOUDY    24  18  77 SW21G30   29.67S WCI   9
MINNEAPOLIS    CLOUDY    30  21  69 W16G23    29.72S WCI  19
$$

  *****  WEATHER ACROSS SOUTH DAKOTA  *****

CITY           SKY/WX    TMP DP  RH WIND       PRES   REMARKS
SIOUX FALLS    PTCLDY    16   9  74 W20G29    29.85S WCI  -1
BROOKINGS      FLURRIES  14   8  77 W23G29    29.76  WCI  -5
WATERTOWN      LGT SNOW  14   8  77 W26G39    29.68F WCI  -6
HURON          MOCLDY    15   7  70 W22G29    29.85R WCI  -3
SISSETON         N/A     18  10  71 W18G33    29.60R WCI   2
ABERDEEN       FLURRIES  17   8  67 W30G39    29.68F WCI  -3
MITCHELL       MOCLDY    17  11  77 W15       29.89S WCI   2
PIERRE         CLOUDY    14   6  70 W26G38    29.89S WCI  -6
MOBRIDGE       MIX PCPN  13   7  77 NW26G41   29.77R WCI  -7
RAPID CITY     CLEAR      8   1  73 CALM      29.92S
$$

  *****  SOME WEATHER IN NEARBY STATES *****

CITY           SKY/WX    TMP DP  RH WIND       PRES   REMARKS
GLASGOW MT     CLOUDY     4  -3  73 W24       30.09S WCI -19
GREAT FALLS MT CLOUDY     5   1  83 N6        30.11R WCI  -6
CHEYENNE WY    CLEAR      8  -9  45 W22       29.86F WCI -12
SCOTTSBLUFF NE CLEAR      6   1  80 NW5       29.98F WCI  -3
OMAHA NE       CLOUDY    29  18  63 NW13      29.93F WCI  19
DES MOINES IA  FLURRIES  34  28  79 NW18G26   29.87R WCI  23
DAVENPORT IA   FOG       32  32 100 E7        29.81F VSB 1/2
CHICAGO IL     PTCLDY    28  26  92 CALM      29.81F FOG
EAU CLAIRE WI  LGT SNOW  33  32  96 S9        29.72F VSB 1
LA CROSSE WI   CLOUDY    36  31  82 S8        29.79F
$$

  *****  SOME NATIONAL WEATHER *****

CITY           SKY/WX    TMP DP  RH WIND       PRES   REMARKS
LA GUARDIA NY  MOCLDY    43  29  57 NW9       30.12S
RALEIGH NC     MOCLDY    47  42  83 E8        29.98S
ATLANTA GA     LGT RAIN  52  52 100 E13       29.77F VSB 1/2
NEW ORLEANS LA MOCLDY    58  56  93 W20G25    29.79R
OKLAHOMA CITY  CLOUDY    43  42  97 N16G25    29.83R FOG
ALBUQUERQUE NM CLOUDY    35  17  47 SE7       29.93F
SALT LAKE CITY MOCLDY    23  11  60 S3        29.95F
LOS ANGELES CA MOCLDY    57  52  83 E5        29.97S
BOISE ID       CLOUDY    26  10  50 SE14      29.93S WCI  14
SEATTLE WA     FOG       34  33  96 N6        30.02R VSB 1/2
$$

*** WEATHER ACROSS MANITOBA...SASKATCHEWAN AND ONTARIO ***
                ***ONTARIO***

CITY           SKY/WX    TMP DP  RH WIND       PRES   REMARKS
GERALDTON      CLOUDY    27  25  93 E8        29.84F WCI  18
THUNDER BAY    CLOUDY    39  36  87 E14G21    29.69F
SIOUX LOOKOUT  LGT SNOW  30  28  93 E8G18     29.57F WCI  23
TORONTO        PTCLDY    32  30  93 S3        30.05F
BIG TROUT LK   FLURRIES  23  23 100 E5        29.88F WCI  17
PICKLE LAKE    NOT AVBL
DRYDEN         FLURRIES  30  28  93 E13G24    29.47F WCI  20
KENORA         LGT SNOW  30  28  93 E16       29.41F DRFTSNOWWCI  19
$$
                *** MANITOBA***

CITY           SKY/WX    TMP DP  RH WIND       PRES   REMARKS
BRANDON        FLURRIES  25  21  86 N17G23    29.67S WCI  11
DAUPHIN        LGT SNOW  21  19  93 N18G25    29.81S WCI   6
ISLAND LAKE    NOT AVBL
PILOT MOUND      N/A     25  25 100 N21G26      N/A  WCI  10
THE PAS        CLOUDY    18  14  86 NW14      29.95R WCI   4
THOMPSON       FLURRIES  21  19  93 NE5       29.92S WCI  15
WINNIPEG       SNOW      30  28  93 N30G38    29.47F VSB 1/2 WCI  15
LYNN LAKE      LGT SNOW  18  16  93 NE3       29.92R
CHURCHILL      MOCLDY    25  23  93 N6        29.97R WCI  18
GILLAM         FLURRIES  19  18  93 N2        29.95S
$$
                ***SASKATCHEWAN***

CITY           SKY/WX    TMP DP  RH WIND       PRES   REMARKS
ESTEVAN        SNOW       7   3  85 NW33G41   29.89R VSB 1/2 WCI -18
KINDERSLEY     CLOUDY    -2  -9  71 NW16      30.14S WCI -23
LLOYDMINSTER   CLEAR     -4 -11  71 NW14G22   30.17R WCI -24
PRINCE ALBERT  FLURRIES   5  -2  72 NW12G18   30.07R WCI -11
REGINA         CLOUDY     7   1  78 NW22      30.00S WCI -14
YORKTON        LGT SNOW  10   7  85 NW17G26   29.90S WCC1F1C2F2C3F3C4F4C5F5C6F6C7F7C8F8C9F9CaFaCbFbCcFcCdFdCe!



USA.gov is the U.S. government's official web portal to all federal, state and local government web resources and services.